owner,sensor,date,latitude,longitude,vertical_datum,direction_of_sea_water_velocity,sea_water_speed,upward_sea_water_velocity,qcFlag 
TABS,ioos:station:wmo:42050:1,2013-09-01T00:00:00Z,28.8425,-94.2433,2.0,243.0138685,26.7977611,-99999.0,'11111222,11111222,99999999' 
TABS,ioos:station:wmo:42050:1,2013-09-01T00:30:00Z,28.8425,-94.2433,2.0,245.201185,20.59950485,-99999.0,'11111222,11111222,99999999' 
TABS,ioos:station:wmo:42050:1,2013-09-01T01:00:00Z,28.8425,-94.2433,2.0,253.4316236,10.87135686,-99999.0,'11111222,11111222,99999999' 
TABS,ioos:station:wmo:42050:1,2013-09-01T01:30:00Z,28.8425,-94.2433,2.0,266.4809758,9.287507739,-99999.0,'11133222,11111222,99999999' 
TABS,ioos:station:wmo:42050:1,2013-09-01T02:00:00Z,28.8425,-94.2433,2.0,278.456239,18.90551242,-99999.0,'11111222,11111222,99999999' 
TABS,ioos:station:wmo:42050:1,2013-09-01T02:30:00Z,28.8425,-94.2433,2.0,286.2963144,17.96160349,-99999.0,'11111222,11111222,99999999' 
TABS,ioos:station:wmo:42050:1,2013-09-01T03:00:00Z,28.8425,-94.2433,2.0,300.7180617,17.97150244,-99999.0,'11111222,11111222,99999999' 
TABS,ioos:station:wmo:42050:1,2013-09-01T03:30:00Z,28.8425,-94.2433,2.0,304.6726804,17.47285037,-99999.0,'11111222,11111222,99999999' 
TABS,ioos:station:wmo:42050:1,2013-09-01T04:00:00Z,28.8425,-94.2433,2.0,320.9341473,18.05726447,-99999.0,'11111222,11111222,99999999' 
TABS,ioos:station:wmo:42050:1,2013-09-01T04:30:00Z,28.8425,-94.2433,2.0,334.4597919,20.75850187,-99999.0,'11111222,11111222,99999999' 
TABS,ioos:station:wmo:42050:1,2013-09-01T05:00:00Z,28.8425,-94.2433,2.0,353.623895,15.75747759,-99999.0,'11111222,11111222,99999999' 
TABS,ioos:station:wmo:42050:1,2013-09-01T05:30:00Z,28.8425,-94.2433,2.0,10.92778706,14.40112843,-99999.0,'11111222,11111222,99999999' 
TABS,ioos:station:wmo:42050:1,2013-09-01T06:00:00Z,28.8425,-94.2433,2.0,19.87426732,13.47239029,-99999.0,'11111222,11111222,99999999' 
TABS,ioos:station:wmo:42050:1,2013-09-01T06:30:00Z,28.8425,-94.2433,2.0,34.95722159,9.407241891,-99999.0,'11133222,11111222,99999999' 
TABS,ioos:station:wmo:42050:1,2013-09-01T07:00:00Z,28.8425,-94.2433,2.0,46.88930079,8.794117352,-99999.0,'11133222,11111222,99999999' 
TABS,ioos:station:wmo:42050:1,2013-09-01T07:30:00Z,28.8425,-94.2433,2.0,59.26985661,7.573440434,-99999.0,'11133222,11111222,99999999' 
TABS,ioos:station:wmo:42050:1,2013-09-01T08:00:00Z,28.8425,-94.2433,2.0,103.4752565,5.450036697,-99999.0,'11133222,11111222,99999999' 
TABS,ioos:station:wmo:42050:1,2013-09-01T08:30:00Z,28.8425,-94.2433,2.0,115.5956984,5.022927433,-99999.0,'11133222,11111222,99999999' 
TABS,ioos:station:wmo:42050:1,2013-09-01T09:00:00Z,28.8425,-94.2433,2.0,137.3948947,9.306583691,-99999.0,'11133222,11111222,99999999' 
TABS,ioos:station:wmo:42050:1,2013-09-01T09:30:00Z,28.8425,-94.2433,2.0,142.0059182,8.869706872,-99999.0,'11133222,11111222,99999999' 
TABS,ioos:station:wmo:42050:1,2013-09-01T10:00:00Z,28.8425,-94.2433,2.0,155.6877427,11.14870845,-99999.0,'11111222,11111222,99999999' 
TABS,ioos:station:wmo:42050:1,2013-09-01T10:30:00Z,28.8425,-94.2433,2.0,152.2915801,10.08667438,-99999.0,'11111222,11111222,99999999' 
TABS,ioos:station:wmo:42050:1,2013-09-01T11:00:00Z,28.8425,-94.2433,2.0,159.0556886,8.812230138,-99999.0,'11133222,11111222,99999999' 
TABS,ioos:station:wmo:42050:1,2013-09-01T11:30:00Z,28.8425,-94.2433,2.0,167.6394034,7.381090705,-99999.0,'11133222,11111222,99999999' 
TABS,ioos:station:wmo:42050:1,2013-09-01T12:00:00Z,28.8425,-94.2433,2.0,164.1772197,13.45999257,-99999.0,'11111222,11111222,99999999' 
TABS,ioos:station:wmo:42050:1,2013-09-01T12:30:00Z,28.8425,-94.2433,2.0,166.2422907,13.96051575,-99999.0,'11111222,11111222,99999999' 
TABS,ioos:station:wmo:42050:1,2013-09-01T13:00:00Z,28.8425,-94.2433,2.0,163.231747,14.35016376,-99999.0,'11111222,11111222,99999999' 
TABS,ioos:station:wmo:42050:1,2013-09-01T13:30:00Z,28.8425,-94.2433,2.0,160.6467163,12.4325098,-99999.0,'11111222,11111222,99999999' 
TABS,ioos:station:wmo:42050:1,2013-09-01T14:00:00Z,28.8425,-94.2433,2.0,154.417593,15.12251633,-99999.0,'11111222,11111222,99999999' 
TABS,ioos:station:wmo:42050:1,2013-09-01T14:30:00Z,28.8425,-94.2433,2.0,156.9958918,14.68802233,-99999.0,'11111222,11111222,99999999' 
TABS,ioos:station:wmo:42050:1,2013-09-01T15:00:00Z,28.8425,-94.2433,2.0,156.0408564,16.6222321,-99999.0,'11111222,11111222,99999999' 
TABS,ioos:station:wmo:42050:1,2013-09-01T15:30:00Z,28.8425,-94.2433,2.0,155.1849091,15.08260588,-99999.0,'11111222,11111222,99999999' 
TABS,ioos:station:wmo:42050:1,2013-09-01T16:00:00Z,28.8425,-94.2433,2.0,165.7528284,14.50615387,-99999.0,'11111222,11111222,99999999' 
TABS,ioos:station:wmo:42050:1,2013-09-01T16:30:00Z,28.8425,-94.2433,2.0,164.5857731,16.44139289,-99999.0,'11111222,11111222,99999999' 
TABS,ioos:station:wmo:42050:1,2013-09-01T17:00:00Z,28.8425,-94.2433,2.0,174.4023654,17.63408347,-99999.0,'11111222,11111222,99999999' 
TABS,ioos:station:wmo:42050:1,2013-09-01T17:30:00Z,28.8425,-94.2433,2.0,175.6338455,18.78450958,-99999.0,'11111222,11111222,99999999' 
TABS,ioos:station:wmo:42050:1,2013-09-01T18:00:00Z,28.8425,-94.2433,2.0,178.2659314,18.83862522,-99999.0,'11111222,11111222,99999999' 
TABS,ioos:station:wmo:42050:1,2013-09-01T18:30:00Z,28.8425,-94.2433,2.0,190.3759914,20.82049231,-99999.0,'11111222,11111222,99999999' 
TABS,ioos:station:wmo:42050:1,2013-09-01T19:00:00Z,28.8425,-94.2433,2.0,186.5116193,22.48506393,-99999.0,'11111222,11111222,99999999' 
TABS,ioos:station:wmo:42050:1,2013-09-01T19:30:00Z,28.8425,-94.2433,2.0,184.350597,23.85875521,-99999.0,'11111222,11111222,99999999' 
TABS,ioos:station:wmo:42050:1,2013-09-01T20:00:00Z,28.8425,-94.2433,2.0,188.4119393,22.69416004,-99999.0,'11111222,11111222,99999999' 
TABS,ioos:station:wmo:42050:1,2013-09-01T20:30:00Z,28.8425,-94.2433,2.0,189.4815832,24.16007657,-99999.0,'11111222,11111222,99999999' 
TABS,ioos:station:wmo:42050:1,2013-09-01T21:00:00Z,28.8425,-94.2433,2.0,191.2641578,24.67533992,-99999.0,'11111222,11111222,99999999' 
TABS,ioos:station:wmo:42050:1,2013-09-01T21:30:00Z,28.8425,-94.2433,2.0,197.9969469,21.52308993,-99999.0,'11111222,11111222,99999999' 
TABS,ioos:station:wmo:42050:1,2013-09-01T22:00:00Z,28.8425,-94.2433,2.0,207.2591015,22.88112759,-99999.0,'11111222,11111222,99999999' 
TABS,ioos:station:wmo:42050:1,2013-09-01T22:30:00Z,28.8425,-94.2433,2.0,218.1340201,22.47747317,-99999.0,'11111222,11111222,99999999' 
TABS,ioos:station:wmo:42050:1,2013-09-01T23:00:00Z,28.8425,-94.2433,2.0,215.5407567,19.74931138,-99999.0,'11111222,11111222,99999999' 
TABS,ioos:station:wmo:42050:1,2013-09-01T23:30:00Z,28.8425,-94.2433,2.0,232.604907,17.68474201,-99999.0,'11111222,11111222,99999999' 
TABS,ioos:station:wmo:42050:1,2013-09-02T00:00:00Z,28.8425,-94.2433,2.0,239.5851954,15.92094532,-99999.0,'11111222,11111222,99999999' 
TABS,ioos:station:wmo:42050:1,2013-09-02T00:30:00Z,28.8425,-94.2433,2.0,245.1153845,13.56982682,-99999.0,'11111222,11111222,99999999' 
TABS,ioos:station:wmo:42050:1,2013-09-02T01:00:00Z,28.8425,-94.2433,2.0,261.0786552,9.221550846,-99999.0,'11133222,11111222,99999999' 
TABS,ioos:station:wmo:42050:1,2013-09-02T01:30:00Z,28.8425,-94.2433,2.0,264.8874745,8.192588114,-99999.0,'11133222,11111222,99999999' 
TABS,ioos:station:wmo:42050:1,2013-09-02T02:00:00Z,28.8425,-94.2433,2.0,303.6185881,8.850248584,-99999.0,'11133222,11111222,99999999' 
TABS,ioos:station:wmo:42050:1,2013-09-02T02:30:00Z,28.8425,-94.2433,2.0,309.2169128,9.964356477,-99999.0,'11133222,11111222,99999999' 
TABS,ioos:station:wmo:42050:1,2013-09-02T03:00:00Z,28.8425,-94.2433,2.0,333.1297833,10.06692108,-99999.0,'11111222,11111222,99999999' 
TABS,ioos:station:wmo:42050:1,2013-09-02T03:30:00Z,28.8425,-94.2433,2.0,324.4085888,9.862454056,-99999.0,'11133222,11111222,99999999' 
TABS,ioos:station:wmo:42050:1,2013-09-02T04:00:00Z,28.8425,-94.2433,2.0,345.1425336,12.51855024,-99999.0,'11111222,11111222,99999999' 
TABS,ioos:station:wmo:42050:1,2013-09-02T04:30:00Z,28.8425,-94.2433,2.0,343.24399,11.55043289,-99999.0,'11111222,11111222,99999999' 
TABS,ioos:station:wmo:42050:1,2013-09-02T05:00:00Z,28.8425,-94.2433,2.0,359.0092495,9.25138368,-99999.0,'11133222,11144222,99999999' 
TABS,ioos:station:wmo:42050:1,2013-09-02T05:30:00Z,28.8425,-94.2433,2.0,8.244961384,10.59955188,-99999.0,'11111222,11111222,99999999' 
TABS,ioos:station:wmo:42050:1,2013-09-02T06:00:00Z,28.8425,-94.2433,2.0,359.4745771,8.720366965,-99999.0,'11133222,11144222,99999999' 
TABS,ioos:station:wmo:42050:1,2013-09-02T06:30:00Z,28.8425,-94.2433,2.0,20.80412417,7.573803536,-99999.0,'11133222,11111222,99999999' 
TABS,ioos:station:wmo:42050:1,2013-09-02T07:00:00Z,28.8425,-94.2433,2.0,18.37435729,8.946088531,-99999.0,'11133222,11111222,99999999' 
TABS,ioos:station:wmo:42050:1,2013-09-02T07:30:00Z,28.8425,-94.2433,2.0,47.46088327,8.563889303,-99999.0,'11133222,11111222,99999999' 
TABS,ioos:station:wmo:42050:1,2013-09-02T08:00:00Z,28.8425,-94.2433,2.0,60.59872899,9.308974165,-99999.0,'11133222,11111222,99999999' 
TABS,ioos:station:wmo:42050:1,2013-09-02T08:30:00Z,28.8425,-94.2433,2.0,89.50437529,11.56043252,-99999.0,'11111222,11111222,99999999' 
TABS,ioos:station:wmo:42050:1,2013-09-02T09:00:00Z,28.8425,-94.2433,2.0,94.42149736,13.49014826,-99999.0,'11111222,11111222,99999999' 
TABS,ioos:station:wmo:42050:1,2013-09-02T09:30:00Z,28.8425,-94.2433,2.0,108.7859627,14.96734111,-99999.0,'11111222,11111222,99999999' 
TABS,ioos:station:wmo:42050:1,2013-09-02T10:00:00Z,28.8425,-94.2433,2.0,115.3074448,16.91321968,-99999.0,'11111222,11111222,99999999' 
TABS,ioos:station:wmo:42050:1,2013-09-02T10:30:00Z,28.8425,-94.2433,2.0,118.7703155,18.01368924,-99999.0,'11111222,11111222,99999999' 
TABS,ioos:station:wmo:42050:1,2013-09-02T11:00:00Z,28.8425,-94.2433,2.0,108.8806438,15.85297764,-99999.0,'11111222,11111222,99999999' 
TABS,ioos:station:wmo:42050:1,2013-09-02T11:30:00Z,28.8425,-94.2433,2.0,110.4423004,8.847157736,-99999.0,'11133222,11111222,99999999' 
TABS,ioos:station:wmo:42050:1,2013-09-02T12:00:00Z,28.8425,-94.2433,2.0,120.0426116,18.13660387,-99999.0,'11111222,11111222,99999999' 
TABS,ioos:station:wmo:42050:1,2013-09-02T12:30:00Z,28.8425,-94.2433,2.0,122.0125108,16.8645664,-99999.0,'11111222,11111222,99999999' 
TABS,ioos:station:wmo:42050:1,2013-09-02T13:00:00Z,28.8425,-94.2433,2.0,117.6557759,17.14927695,-99999.0,'11111222,11111222,99999999' 
TABS,ioos:station:wmo:42050:1,2013-09-02T13:30:00Z,28.8425,-94.2433,2.0,113.0967679,19.22066596,-99999.0,'11111222,11111222,99999999' 
TABS,ioos:station:wmo:42050:1,2013-09-02T14:00:00Z,28.8425,-94.2433,2.0,113.0794187,18.3159739,-99999.0,'11111222,11111222,99999999' 
TABS,ioos:station:wmo:42050:1,2013-09-02T14:30:00Z,28.8425,-94.2433,2.0,126.4964446,16.88035841,-99999.0,'11111222,11111222,99999999' 
TABS,ioos:station:wmo:42050:1,2013-09-02T15:00:00Z,28.8425,-94.2433,2.0,122.3077317,15.06171969,-99999.0,'11111222,11111222,99999999' 
TABS,ioos:station:wmo:42050:1,2013-09-02T15:30:00Z,28.8425,-94.2433,2.0,123.4190615,13.49045959,-99999.0,'11111222,11111222,99999999' 
TABS,ioos:station:wmo:42050:1,2013-09-02T16:00:00Z,28.8425,-94.2433,2.0,118.9046351,13.36493921,-99999.0,'11111222,11111222,99999999' 
TABS,ioos:station:wmo:42050:1,2013-09-02T16:30:00Z,28.8425,-94.2433,2.0,116.4902881,13.72052477,-99999.0,'11111222,11111222,99999999' 
TABS,ioos:station:wmo:42050:1,2013-09-02T17:00:00Z,28.8425,-94.2433,2.0,111.0944044,14.44819712,-99999.0,'11111222,11111222,99999999' 
TABS,ioos:station:wmo:42050:1,2013-09-02T17:30:00Z,28.8425,-94.2433,2.0,116.3900411,14.64631353,-99999.0,'11111222,11111222,99999999' 
TABS,ioos:station:wmo:42050:1,2013-09-02T18:00:00Z,28.8425,-94.2433,2.0,124.9856133,14.84202479,-99999.0,'11111222,11111222,99999999' 
TABS,ioos:station:wmo:42050:1,2013-09-02T18:30:00Z,28.8425,-94.2433,2.0,129.7847525,14.15831911,-99999.0,'11111222,11111222,99999999' 
TABS,ioos:station:wmo:42050:1,2013-09-02T19:00:00Z,28.8425,-94.2433,2.0,145.6335139,12.45388694,-99999.0,'11111222,11111222,99999999' 
TABS,ioos:station:wmo:42050:1,2013-09-02T19:30:00Z,28.8425,-94.2433,2.0,143.6730485,11.39451184,-99999.0,'11111222,11111222,99999999' 
TABS,ioos:station:wmo:42050:1,2013-09-02T20:00:00Z,28.8425,-94.2433,2.0,134.2045294,15.79121591,-99999.0,'11111222,11111222,99999999' 
TABS,ioos:station:wmo:42050:1,2013-09-02T20:30:00Z,28.8425,-94.2433,2.0,146.3478121,12.5417742,-99999.0,'11111222,11111222,99999999' 
TABS,ioos:station:wmo:42050:1,2013-09-02T21:00:00Z,28.8425,-94.2433,2.0,158.6863494,11.77536836,-99999.0,'11111222,11111222,99999999' 
TABS,ioos:station:wmo:42050:1,2013-09-02T21:30:00Z,28.8425,-94.2433,2.0,143.4859605,12.55424231,-99999.0,'11111222,11111222,99999999' 
TABS,ioos:station:wmo:42050:1,2013-09-02T22:00:00Z,28.8425,-94.2433,2.0,130.7230064,10.71421952,-99999.0,'11111222,11111222,99999999' 
TABS,ioos:station:wmo:42050:1,2013-09-02T22:30:00Z,28.8425,-94.2433,2.0,142.0965723,8.871442949,-99999.0,'11133222,11111222,99999999' 
TABS,ioos:station:wmo:42050:1,2013-09-02T23:00:00Z,28.8425,-94.2433,2.0,116.970376,11.37739865,-99999.0,'11111222,11111222,99999999' 
TABS,ioos:station:wmo:42050:1,2013-09-02T23:30:00Z,28.8425,-94.2433,2.0,137.282209,11.7189846,-99999.0,'11111222,11111222,99999999' 
TABS,ioos:station:wmo:42050:1,2013-09-03T00:00:00Z,28.8425,-94.2433,2.0,135.5468533,5.925824837,-99999.0,'11133222,11111222,99999999' 
TABS,ioos:station:wmo:42050:1,2013-09-03T00:30:00Z,28.8425,-94.2433,2.0,151.1990164,5.043936954,-99999.0,'11133222,11111222,99999999' 
TABS,ioos:station:wmo:42050:1,2013-09-03T01:00:00Z,28.8425,-94.2433,2.0,149.2774504,2.035706266,-99999.0,'11133222,11111222,99999999' 
TABS,ioos:station:wmo:42050:1,2013-09-03T01:30:00Z,28.8425,-94.2433,2.0,241.2538558,2.703127818,-99999.0,'11133222,11111222,99999999' 
TABS,ioos:station:wmo:42050:1,2013-09-03T02:00:00Z,28.8425,-94.2433,2.0,293.1875641,13.20680128,-99999.0,'11111222,11111222,99999999' 
TABS,ioos:station:wmo:42050:1,2013-09-03T02:30:00Z,28.8425,-94.2433,2.0,303.8847477,13.90086688,-99999.0,'11111222,11111222,99999999' 
TABS,ioos:station:wmo:42050:1,2013-09-03T03:00:00Z,28.8425,-94.2433,2.0,319.0599459,17.77884698,-99999.0,'11111222,11111222,99999999' 
TABS,ioos:station:wmo:42050:1,2013-09-03T03:30:00Z,28.8425,-94.2433,2.0,326.8609536,17.88990777,-99999.0,'11111222,11111222,99999999' 
TABS,ioos:station:wmo:42050:1,2013-09-03T04:00:00Z,28.8425,-94.2433,2.0,334.8290316,20.40792248,-99999.0,'11111222,11111222,99999999' 
TABS,ioos:station:wmo:42050:1,2013-09-03T04:30:00Z,28.8425,-94.2433,2.0,342.9021601,18.16274208,-99999.0,'11111222,11111222,99999999' 
TABS,ioos:station:wmo:42050:1,2013-09-03T05:00:00Z,28.8425,-94.2433,2.0,350.7993892,18.01174062,-99999.0,'11111222,11111222,99999999' 
TABS,ioos:station:wmo:42050:1,2013-09-03T05:30:00Z,28.8425,-94.2433,2.0,0.986871257,18.00266925,-99999.0,'11111222,11111222,99999999' 
TABS,ioos:station:wmo:42050:1,2013-09-03T06:00:00Z,28.8425,-94.2433,2.0,8.238852848,17.16716925,-99999.0,'11111222,11111222,99999999' 
TABS,ioos:station:wmo:42050:1,2013-09-03T06:30:00Z,28.8425,-94.2433,2.0,18.94572111,17.03270384,-99999.0,'11111222,11111222,99999999' 
TABS,ioos:station:wmo:42050:1,2013-09-03T07:00:00Z,28.8425,-94.2433,2.0,19.37592812,18.29624278,-99999.0,'11111222,11111222,99999999' 
TABS,ioos:station:wmo:42050:1,2013-09-03T07:30:00Z,28.8425,-94.2433,2.0,20.67938114,16.87737243,-99999.0,'11111222,11111222,99999999' 
TABS,ioos:station:wmo:42050:1,2013-09-03T08:00:00Z,28.8425,-94.2433,2.0,20.54638073,13.64816838,-99999.0,'11111222,11111222,99999999' 
TABS,ioos:station:wmo:42050:1,2013-09-03T08:30:00Z,28.8425,-94.2433,2.0,29.93272641,14.0085581,-99999.0,'11111222,11111222,99999999' 
TABS,ioos:station:wmo:42050:1,2013-09-03T09:00:00Z,28.8425,-94.2433,2.0,36.88907598,12.02800067,-99999.0,'11111222,11111222,99999999' 
TABS,ioos:station:wmo:42050:1,2013-09-03T09:30:00Z,28.8425,-94.2433,2.0,31.1594421,11.55735696,-99999.0,'11111222,11111222,99999999' 
TABS,ioos:station:wmo:42050:1,2013-09-03T10:00:00Z,28.8425,-94.2433,2.0,40.50807586,10.65346892,-99999.0,'11111222,11111222,99999999' 
TABS,ioos:station:wmo:42050:1,2013-09-03T10:30:00Z,28.8425,-94.2433,2.0,81.74918741,12.751992,-99999.0,'11111222,11111222,99999999' 
TABS,ioos:station:wmo:42050:1,2013-09-03T11:00:00Z,28.8425,-94.2433,2.0,89.87309955,9.030022148,-99999.0,'11133222,11111222,99999999' 
TABS,ioos:station:wmo:42050:1,2013-09-03T11:30:00Z,28.8425,-94.2433,2.0,112.1615419,4.135516896,-99999.0,'11133222,11111222,99999999' 
TABS,ioos:station:wmo:42050:1,2013-09-03T12:00:00Z,28.8425,-94.2433,2.0,106.2152554,12.24720376,-99999.0,'11111222,11111222,99999999' 
TABS,ioos:station:wmo:42050:1,2013-09-03T12:30:00Z,28.8425,-94.2433,2.0,92.860469,14.82847598,-99999.0,'11111222,11111222,99999999' 
TABS,ioos:station:wmo:42050:1,2013-09-03T13:00:00Z,28.8425,-94.2433,2.0,95.87970993,21.57349531,-99999.0,'11111222,11111222,99999999' 
TABS,ioos:station:wmo:42050:1,2013-09-03T13:30:00Z,28.8425,-94.2433,2.0,104.0477622,24.05953449,-99999.0,'11111222,11111222,99999999' 
TABS,ioos:station:wmo:42050:1,2013-09-03T14:00:00Z,28.8425,-94.2433,2.0,107.7179848,23.75688953,-99999.0,'11111222,11111222,99999999' 
TABS,ioos:station:wmo:42050:1,2013-09-03T14:30:00Z,28.8425,-94.2433,2.0,111.5927293,21.92890786,-99999.0,'11111222,11111222,99999999' 
TABS,ioos:station:wmo:42050:1,2013-09-03T15:00:00Z,28.8425,-94.2433,2.0,113.1338411,18.6061334,-99999.0,'11111222,11111222,99999999' 
TABS,ioos:station:wmo:42050:1,2013-09-03T15:30:00Z,28.8425,-94.2433,2.0,115.5884533,16.53141555,-99999.0,'11111222,11111222,99999999' 
TABS,ioos:station:wmo:42050:1,2013-09-03T16:00:00Z,28.8425,-94.2433,2.0,118.5840971,17.38951696,-99999.0,'11111222,11111222,99999999' 
TABS,ioos:station:wmo:42050:1,2013-09-03T16:30:00Z,28.8425,-94.2433,2.0,127.0525828,16.92808613,-99999.0,'11111222,11111222,99999999' 
TABS,ioos:station:wmo:42050:1,2013-09-03T17:00:00Z,28.8425,-94.2433,2.0,134.8298785,14.29776206,-99999.0,'11111222,11111222,99999999' 
TABS,ioos:station:wmo:42050:1,2013-09-03T17:30:00Z,28.8425,-94.2433,2.0,143.7190049,15.95284301,-99999.0,'11111222,11111222,99999999' 
TABS,ioos:station:wmo:42050:1,2013-09-03T18:00:00Z,28.8425,-94.2433,2.0,151.1210834,13.29308091,-99999.0,'11111222,11111222,99999999' 
TABS,ioos:station:wmo:42050:1,2013-09-03T18:30:00Z,28.8425,-94.2433,2.0,161.631275,16.37428472,-99999.0,'11111222,11111222,99999999' 
TABS,ioos:station:wmo:42050:1,2013-09-03T19:00:00Z,28.8425,-94.2433,2.0,160.2972208,15.00868082,-99999.0,'11111222,11111222,99999999' 
TABS,ioos:station:wmo:42050:1,2013-09-03T19:30:00Z,28.8425,-94.2433,2.0,165.0252774,15.40307761,-99999.0,'11111222,11111222,99999999' 
TABS,ioos:station:wmo:42050:1,2013-09-03T20:00:00Z,28.8425,-94.2433,2.0,170.5434877,15.70339135,-99999.0,'11111222,11111222,99999999' 
TABS,ioos:station:wmo:42050:1,2013-09-03T20:30:00Z,28.8425,-94.2433,2.0,182.0395941,14.60925734,-99999.0,'11111222,11111222,99999999' 
TABS,ioos:station:wmo:42050:1,2013-09-03T21:00:00Z,28.8425,-94.2433,2.0,190.7683585,15.36050129,-99999.0,'11111222,11111222,99999999' 
TABS,ioos:station:wmo:42050:1,2013-09-03T21:30:00Z,28.8425,-94.2433,2.0,199.211283,14.46558675,-99999.0,'11111222,11111222,99999999' 
TABS,ioos:station:wmo:42050:1,2013-09-03T22:00:00Z,28.8425,-94.2433,2.0,206.4466086,15.17846171,-99999.0,'11111222,11111222,99999999' 
TABS,ioos:station:wmo:42050:1,2013-09-03T22:30:00Z,28.8425,-94.2433,2.0,222.4841292,13.53292282,-99999.0,'11111222,11111222,99999999' 
TABS,ioos:station:wmo:42050:1,2013-09-03T23:00:00Z,28.8425,-94.2433,2.0,239.6255543,10.16525947,-99999.0,'11111222,11111222,99999999' 
TABS,ioos:station:wmo:42050:1,2013-09-03T23:30:00Z,28.8425,-94.2433,2.0,238.952954,11.84713467,-99999.0,'11111222,11111222,99999999' 
TABS,ioos:station:wmo:42050:1,2013-09-04T00:00:00Z,28.8425,-94.2433,2.0,261.3377851,9.296026033,-99999.0,'11133222,11111222,99999999' 
TABS,ioos:station:wmo:42050:1,2013-09-04T00:30:00Z,28.8425,-94.2433,2.0,268.9205958,11.1519774,-99999.0,'11111222,11111222,99999999' 
TABS,ioos:station:wmo:42050:1,2013-09-04T01:00:00Z,28.8425,-94.2433,2.0,305.7948682,7.779370154,-99999.0,'11133222,11111222,99999999' 
TABS,ioos:station:wmo:42050:1,2013-09-04T01:30:00Z,28.8425,-94.2433,2.0,319.859674,13.35575531,-99999.0,'11111222,11111222,99999999' 
TABS,ioos:station:wmo:42050:1,2013-09-04T02:00:00Z,28.8425,-94.2433,2.0,334.6376521,14.91785843,-99999.0,'11111222,11111222,99999999' 
TABS,ioos:station:wmo:42050:1,2013-09-04T02:30:00Z,28.8425,-94.2433,2.0,346.1595473,16.34457096,-99999.0,'11111222,11111222,99999999' 
TABS,ioos:station:wmo:42050:1,2013-09-04T03:00:00Z,28.8425,-94.2433,2.0,353.1892762,17.87615451,-99999.0,'11111222,11111222,99999999' 
TABS,ioos:station:wmo:42050:1,2013-09-04T03:30:00Z,28.8425,-94.2433,2.0,6.073353487,17.29707779,-99999.0,'11111222,11111222,99999999' 
TABS,ioos:station:wmo:42050:1,2013-09-04T04:00:00Z,28.8425,-94.2433,2.0,10.84868502,20.45557626,-99999.0,'11111222,11111222,99999999' 
TABS,ioos:station:wmo:42050:1,2013-09-04T04:30:00Z,28.8425,-94.2433,2.0,26.06905234,23.7568769,-99999.0,'11111222,11111222,99999999' 
TABS,ioos:station:wmo:42050:1,2013-09-04T05:00:00Z,28.8425,-94.2433,2.0,26.63101872,23.35798151,-99999.0,'11111222,11111222,99999999' 
TABS,ioos:station:wmo:42050:1,2013-09-04T05:30:00Z,28.8425,-94.2433,2.0,30.75877978,25.86901235,-99999.0,'11111222,11111222,99999999' 
TABS,ioos:station:wmo:42050:1,2013-09-04T06:00:00Z,28.8425,-94.2433,2.0,33.6727523,27.32453293,-99999.0,'11111222,11111222,99999999' 
TABS,ioos:station:wmo:42050:1,2013-09-04T06:30:00Z,28.8425,-94.2433,2.0,36.59707286,28.54832394,-99999.0,'11111222,11111222,99999999' 
TABS,ioos:station:wmo:42050:1,2013-09-04T07:00:00Z,28.8425,-94.2433,2.0,40.13236091,26.49894338,-99999.0,'11111222,11111222,99999999' 
TABS,ioos:station:wmo:42050:1,2013-09-04T07:30:00Z,28.8425,-94.2433,2.0,48.90750627,26.56411113,-99999.0,'11111222,11111222,99999999' 
TABS,ioos:station:wmo:42050:1,2013-09-04T08:00:00Z,28.8425,-94.2433,2.0,56.47050284,25.7437371,-99999.0,'11111222,11111222,99999999' 
TABS,ioos:station:wmo:42050:1,2013-09-04T08:30:00Z,28.8425,-94.2433,2.0,59.28705264,25.47292877,-99999.0,'11111222,11111222,99999999' 
TABS,ioos:station:wmo:42050:1,2013-09-04T09:00:00Z,28.8425,-94.2433,2.0,72.92449596,24.79291028,-99999.0,'11111222,11111222,99999999' 
TABS,ioos:station:wmo:42050:1,2013-09-04T09:30:00Z,28.8425,-94.2433,2.0,68.00214823,21.11739804,-99999.0,'11111222,11111222,99999999' 
TABS,ioos:station:wmo:42050:1,2013-09-04T10:00:00Z,28.8425,-94.2433,2.0,78.05481779,20.87196205,-99999.0,'11111222,11111222,99999999' 
TABS,ioos:station:wmo:42050:1,2013-09-04T10:30:00Z,28.8425,-94.2433,2.0,85.33946542,18.46104006,-99999.0,'11111222,11111222,99999999' 
TABS,ioos:station:wmo:42050:1,2013-09-04T11:00:00Z,28.8425,-94.2433,2.0,92.45639407,17.26586517,-99999.0,'11111222,11111222,99999999' 
TABS,ioos:station:wmo:42050:1,2013-09-04T11:30:00Z,28.8425,-94.2433,2.0,102.2952377,7.983107165,-99999.0,'11133222,11111222,99999999' 
TABS,ioos:station:wmo:42050:1,2013-09-04T12:00:00Z,28.8425,-94.2433,2.0,104.919651,22.02242721,-99999.0,'11111222,11111222,99999999' 
TABS,ioos:station:wmo:42050:1,2013-09-04T12:30:00Z,28.8425,-94.2433,2.0,109.4976889,21.48188539,-99999.0,'11111222,11111222,99999999' 
TABS,ioos:station:wmo:42050:1,2013-09-04T13:00:00Z,28.8425,-94.2433,2.0,108.2191039,20.15017618,-99999.0,'11111222,11111222,99999999' 
TABS,ioos:station:wmo:42050:1,2013-09-04T13:30:00Z,28.8425,-94.2433,2.0,108.7294823,17.22199175,-99999.0,'11111222,11111222,99999999' 
TABS,ioos:station:wmo:42050:1,2013-09-04T14:00:00Z,28.8425,-94.2433,2.0,107.8735132,17.10558096,-99999.0,'11111222,11111222,99999999' 
TABS,ioos:station:wmo:42050:1,2013-09-04T14:30:00Z,28.8425,-94.2433,2.0,117.5105431,15.17602385,-99999.0,'11111222,11111222,99999999' 
TABS,ioos:station:wmo:42050:1,2013-09-04T15:00:00Z,28.8425,-94.2433,2.0,111.2895827,12.88962761,-99999.0,'11111222,11111222,99999999' 
TABS,ioos:station:wmo:42050:1,2013-09-04T15:30:00Z,28.8425,-94.2433,2.0,111.0495725,10.18998037,-99999.0,'11111222,11111222,99999999' 
TABS,ioos:station:wmo:42050:1,2013-09-04T16:00:00Z,28.8425,-94.2433,2.0,120.0713008,9.359813032,-99999.0,'11133222,11111222,99999999' 